Regional Weather Roundup
Issued by NWS

Home | Current Version | Previous Version | Text Only | Print | Product List | Glossary On
Versions: 1 2 3 4 5 6 7 8 9 10 11 12 13 14 15 16 17 18 19 20 21 22 23 24 25 26 27
000
ASPQ40 PGUM 202312
RWRPQ
WEATHER ROUNDUP FOR THE MARIANAS AND MICRONESIA
NATIONAL WEATHER SERVICE TIYAN GU
900 AM GSST MON APR 21 2014

GUZ001>004-210000-
MARIANA ISLANDS-

CITY           SKY/WX    TMP DP  RH WIND       PRES   REMARKS
GUAM AIRPORT   PTSUNNY   82  79  89 SE10      29.91R HX  93
ANDERSEN AFB   MOSUNNY   82  77  83 SE13      29.91R HX  91
ROTA AIRPORT   MOSUNNY   81  79  94 SE14      29.92R
TINIAN AP      MOSUNNY   81  75  83 E8        29.89S
SAIPAN AP      CLOUDY    82  79  89 E12       29.91R HX  93

$$

PMZ161-210000-
REPUBLIC OF PALAU-

CITY           SKY/WX    TMP DP  RH WIND       PRES   REMARKS
KOROR AP       MOSUNNY   82  77  83 CALM      29.80R HX  91
KOROR WSO      MOSUNNY   84  77  79 CALM      29.81R HX  94

$$

PMZ171>174-210000-
FEDERATED STATES OF MICRONESIA-

CITY           SKY/WX    TMP DP  RH WIND       PRES   REMARKS
YAP AIRPORT    PTSUNNY   88  77  70 SE8       29.82R HX 100
CHUUK AP       CLOUDY    86  79  79 NE10      29.86S HX  99
POHNPEI AP     CLOUDY    86  77  74 NE13      29.84S HX  97
POHNPEI WSO    NOT AVBL
KOSRAE AP      NOT AVBL

$$

PMZ181-210000-
REPUBLIC OF THE MARSHALL ISLANDS-

CITY           SKY/WX    TMP DP  RH WIND       PRES   REMARKS
KWAJALEIN AP   HVY RAIN  77  75  94 W5G18     29.91S
MAJURO AP      NOT AVBL
MAJURO WSO     PTSUNNY   81  77  89 SE13      29.89F

$$




USA.gov is the U.S. government's official web portal to all federal, state and local government web resources and services.